Time,TemperatureF,DewpointF,PressureIn,WindDirection,WindDirectionDegrees,WindSpeedMPH,WindSpeedGustMPH,Humidity,HourlyPrecipIn,Conditions,Clouds,dailyrainin,SoftwareType,DateUTC
2013-02-01 00:03:00,26.0,15.0,29.56,NE,48,1.0,5.0,62,0.00,,,0.32,,2013-02-01 05:03:00,
2013-02-01 00:12:00,26.0,15.0,29.56,NE,48,1.0,5.0,62,0.00,,,0.32,,2013-02-01 05:12:00,
2013-02-01 00:22:00,26.0,15.0,29.57,NNW,344,1.0,3.0,62,0.00,,,0.30,,2013-02-01 05:22:00,
2013-02-01 00:32:00,26.0,14.0,29.57,SSE,148,2.0,4.0,61,0.00,,,0.30,,2013-02-01 05:32:00,
2013-02-01 00:42:00,26.0,14.0,29.57,SSE,148,2.0,4.0,61,0.00,,,0.30,,2013-02-01 05:42:00,
2013-02-01 00:52:00,26.0,18.0,29.58,NW,307,2.0,14.0,70,0.00,,,0.30,,2013-02-01 05:52:00,
2013-02-01 01:02:00,25.0,17.0,29.57,NW,320,0.0,3.0,71,0.00,,,0.30,,2013-02-01 06:02:00,
2013-02-01 01:11:00,25.0,17.0,29.57,NW,320,0.0,3.0,71,0.00,,,0.30,,2013-02-01 06:11:00,
2013-02-01 01:22:00,26.0,16.0,29.58,West,273,3.0,11.0,64,0.00,,,0.29,,2013-02-01 06:22:00,
2013-02-01 01:32:00,26.0,18.0,29.59,North,5,2.0,14.0,70,0.00,,,0.29,,2013-02-01 06:32:00,
2013-02-01 01:42:00,26.0,18.0,29.59,North,5,2.0,14.0,70,0.00,,,0.29,,2013-02-01 06:42:00,
2013-02-01 01:52:00,24.0,19.0,29.59,WSW,255,3.0,6.0,81,0.00,,,0.29,,2013-02-01 06:52:00,
2013-02-01 02:02:00,23.0,18.0,29.60,West,268,4.0,16.0,82,0.00,,,0.29,,2013-02-01 07:02:00,
2013-02-01 02:12:00,23.0,17.0,29.61,WNW,294,3.0,9.0,79,0.00,,,0.28,,2013-02-01 07:12:00,
2013-02-01 02:22:00,23.0,17.0,29.61,WNW,294,3.0,9.0,79,0.00,,,0.28,,2013-02-01 07:22:00,
2013-02-01 02:32:00,23.0,17.0,29.61,NW,311,0.0,9.0,78,0.00,,,0.28,,2013-02-01 07:32:00,
2013-02-01 02:42:00,23.0,17.0,29.61,NW,311,0.0,9.0,78,0.00,,,0.28,,2013-02-01 07:42:00,
2013-02-01 02:52:00,23.0,17.0,29.61,West,259,0.0,10.0,76,0.00,,,0.28,,2013-02-01 07:52:00,
2013-02-01 03:01:00,23.0,16.0,29.61,WSW,246,1.0,2.0,75,0.00,,,0.28,,2013-02-01 08:01:00,
2013-02-01 03:11:00,23.0,16.0,29.61,WSW,246,1.0,2.0,75,0.00,,,0.28,,2013-02-01 08:11:00,
2013-02-01 03:21:00,23.0,15.0,29.61,SE,144,2.0,10.0,72,0.00,,,0.22,,2013-02-01 08:21:00,
2013-02-01 03:32:00,24.0,15.0,29.61,NW,321,2.0,10.0,69,0.00,,,0.22,,2013-02-01 08:32:00,
2013-02-01 03:42:00,24.0,15.0,29.61,NW,321,2.0,10.0,69,0.00,,,0.22,,2013-02-01 08:42:00,
2013-02-01 03:52:00,23.0,14.0,29.60,SW,225,0.0,6.0,67,0.00,,,0.22,,2013-02-01 08:52:00,
2013-02-01 04:01:00,23.0,13.0,29.61,SSW,205,3.0,10.0,65,0.00,,,0.22,,2013-02-01 09:01:00,
2013-02-01 04:11:00,23.0,13.0,29.61,SSW,205,3.0,10.0,65,0.00,,,0.22,,2013-02-01 09:11:00,
2013-02-01 04:21:00,24.0,13.0,29.61,North,11,2.0,12.0,62,0.00,,,0.20,,2013-02-01 09:21:00,
2013-02-01 04:32:00,24.0,13.0,29.61,SW,221,3.0,8.0,61,0.00,,,0.20,,2013-02-01 09:32:00,
2013-02-01 04:42:00,24.0,13.0,29.61,SW,221,3.0,8.0,61,0.00,,,0.20,,2013-02-01 09:42:00,
2013-02-01 04:52:00,23.0,12.0,29.61,South,171,1.0,9.0,62,0.00,,,0.20,,2013-02-01 09:52:00,
2013-02-01 05:01:00,23.0,11.0,29.61,WSW,240,1.0,10.0,59,0.00,,,0.20,,2013-02-01 10:01:00,
2013-02-01 05:11:00,23.0,11.0,29.61,WSW,240,1.0,10.0,59,0.00,,,0.20,,2013-02-01 10:11:00,
2013-02-01 05:21:00,23.0,11.0,29.61,SSW,195,0.0,4.0,60,0.00,,,0.14,,2013-02-01 10:21:00,
2013-02-01 05:32:00,23.0,10.0,29.61,SW,235,1.0,5.0,57,0.00,,,0.14,,2013-02-01 10:32:00,
2013-02-01 05:42:00,23.0,10.0,29.61,SW,235,1.0,5.0,57,0.00,,,0.14,,2013-02-01 10:42:00,
2013-02-01 05:53:00,22.0,10.0,29.62,West,264,2.0,6.0,58,0.00,,,0.14,,2013-02-01 10:53:00,
2013-02-01 06:02:00,23.0,10.0,29.62,NW,309,1.0,7.0,57,0.00,,,0.14,,2013-02-01 11:02:00,
2013-02-01 06:11:00,23.0,10.0,29.62,NW,309,1.0,7.0,57,0.00,,,0.14,,2013-02-01 11:11:00,
2013-02-01 06:22:00,23.0,10.0,29.63,WSW,252,1.0,6.0,56,0.00,,,0.13,,2013-02-01 11:22:00,
2013-02-01 06:32:00,22.0,8.0,29.64,WNW,288,1.0,11.0,55,0.00,,,0.13,,2013-02-01 11:32:00,
2013-02-01 06:42:00,22.0,8.0,29.64,WNW,288,1.0,11.0,55,0.00,,,0.13,,2013-02-01 11:42:00,
2013-02-01 06:53:00,22.0,9.0,29.65,SW,225,0.0,3.0,57,0.00,,,0.13,,2013-02-01 11:53:00,
2013-02-01 07:03:00,22.0,9.0,29.67,SSW,193,4.0,6.0,57,0.00,,,0.13,,2013-02-01 12:03:00,
2013-02-01 07:12:00,22.0,9.0,29.67,SSW,193,4.0,6.0,57,0.00,,,0.13,,2013-02-01 12:12:00,
2013-02-01 07:23:00,22.0,10.0,29.67,SE,145,0.0,4.0,58,0.00,,,0.03,,2013-02-01 12:23:00,
2013-02-01 07:32:00,22.0,10.0,29.68,West,261,0.0,3.0,60,0.00,,,0.03,,2013-02-01 12:32:00,
2013-02-01 07:42:00,22.0,10.0,29.68,West,261,0.0,3.0,60,0.00,,,0.03,,2013-02-01 12:42:00,
2013-02-01 07:52:00,22.0,11.0,29.69,NW,306,0.0,4.0,61,0.00,,,0.03,,2013-02-01 12:52:00,
2013-02-01 08:02:00,22.0,10.0,29.70,SE,140,2.0,5.0,60,0.00,,,0.03,,2013-02-01 13:02:00,
2013-02-01 08:11:00,22.0,10.0,29.70,SE,140,2.0,5.0,60,0.00,,,0.03,,2013-02-01 13:11:00,
2013-02-01 08:22:00,23.0,11.0,29.71,SSW,209,0.0,5.0,60,0.00,,,0.01,,2013-02-01 13:22:00,
2013-02-01 08:33:00,23.0,12.0,29.72,West,277,0.0,9.0,61,0.00,,,0.01,,2013-02-01 13:33:00,
2013-02-01 08:42:00,23.0,12.0,29.72,West,277,0.0,9.0,61,0.00,,,0.01,,2013-02-01 13:42:00,
2013-02-01 08:53:00,23.0,12.0,29.72,NNW,328,0.0,4.0,62,0.00,,,0.01,,2013-02-01 13:53:00,
2013-02-01 09:03:00,23.0,12.0,29.73,SW,214,4.0,16.0,62,0.00,,,0.01,,2013-02-01 14:03:00,
2013-02-01 09:11:00,24.0,13.0,29.74,West,277,4.0,13.0,62,0.00,,,0.01,,2013-02-01 14:11:00,
2013-02-01 09:22:00,24.0,13.0,29.74,West,277,4.0,13.0,62,0.00,,,0.01,,2013-02-01 14:22:00,
2013-02-01 09:32:00,25.0,13.0,29.74,West,278,1.0,9.0,61,0.00,,,0.01,,2013-02-01 14:32:00,
2013-02-01 09:42:00,25.0,13.0,29.74,West,278,1.0,9.0,61,0.00,,,0.01,,2013-02-01 14:42:00,
2013-02-01 09:53:00,25.0,13.0,29.75,North,5,2.0,6.0,59,0.00,,,0.01,,2013-02-01 14:53:00,
2013-02-01 10:02:00,24.0,12.0,29.75,North,360,3.0,4.0,59,0.00,,,0.01,,2013-02-01 15:02:00,
2013-02-01 10:12:00,24.0,12.0,29.76,West,261,4.0,11.0,59,0.00,,,0.01,,2013-02-01 15:12:00,
2013-02-01 10:22:00,24.0,12.0,29.76,West,261,4.0,11.0,59,0.00,,,0.01,,2013-02-01 15:22:00,
2013-02-01 10:33:00,24.0,12.0,29.77,West,274,4.0,12.0,59,0.00,,,0.01,,2013-02-01 15:33:00,
2013-02-01 10:42:00,24.0,12.0,29.77,West,274,4.0,12.0,59,0.00,,,0.01,,2013-02-01 15:42:00,
2013-02-01 10:52:00,25.0,13.0,29.77,ENE,75,1.0,4.0,60,0.00,,,0.01,,2013-02-01 15:52:00,
2013-02-01 11:03:00,25.0,13.0,29.77,WNW,284,3.0,11.0,59,0.00,,,0.01,,2013-02-01 16:03:00,
2013-02-01 11:11:00,25.0,13.0,29.76,WNW,284,3.0,13.0,59,0.00,,,0.01,,2013-02-01 16:11:00,
2013-02-01 11:22:00,25.0,13.0,29.76,WNW,284,3.0,13.0,59,0.00,,,0.01,,2013-02-01 16:22:00,
2013-02-01 11:33:00,26.0,14.0,29.76,North,355,2.0,14.0,61,0.00,,,0.01,,2013-02-01 16:33:00,
2013-02-01 11:43:00,22.0,17.0,29.78,North,360,3.0,13.0,82,0.00,,,0.01,,2013-02-01 16:43:00,
2013-02-01 11:52:00,22.0,17.0,29.78,North,360,3.0,13.0,82,0.00,,,0.01,,2013-02-01 16:52:00,
2013-02-01 12:02:00,22.0,17.0,29.78,North,355,4.0,13.0,82,0.00,,,0.01,,2013-02-01 17:02:00,
2013-02-01 12:12:00,22.0,17.0,29.78,West,275,2.0,10.0,82,0.00,,,0.01,,2013-02-01 17:12:00,
2013-02-01 12:22:00,22.0,17.0,29.78,West,275,2.0,10.0,82,0.00,,,0.01,,2013-02-01 17:22:00,
2013-02-01 12:32:00,22.0,17.0,29.78,West,267,2.0,11.0,81,0.00,,,0.01,,2013-02-01 17:32:00,
2013-02-01 12:42:00,22.0,17.0,29.78,West,267,2.0,11.0,81,0.00,,,0.01,,2013-02-01 17:42:00,
2013-02-01 12:53:00,23.0,16.0,29.77,WNW,295,6.0,15.0,73,0.00,,,0.01,,2013-02-01 17:53:00,
2013-02-01 13:03:00,24.0,13.0,29.77,West,279,5.0,14.0,61,0.00,,,0.01,,2013-02-01 18:03:00,
2013-02-01 13:12:00,24.0,13.0,29.77,West,279,5.0,14.0,61,0.00,,,0.01,,2013-02-01 18:12:00,
2013-02-01 13:22:00,25.0,12.0,29.77,NW,309,3.0,15.0,58,0.00,,,0.01,,2013-02-01 18:22:00,
2013-02-01 13:32:00,25.0,12.0,29.77,North,355,4.0,13.0,57,0.00,,,0.01,,2013-02-01 18:32:00,
2013-02-01 13:42:00,25.0,12.0,29.77,North,355,4.0,13.0,57,0.00,,,0.01,,2013-02-01 18:42:00,
2013-02-01 13:53:00,24.0,11.0,29.78,North,355,4.0,13.0,56,0.00,,,0.01,,2013-02-01 18:53:00,
2013-02-01 14:03:00,24.0,11.0,29.78,WNW,294,6.0,18.0,56,0.00,,,0.01,,2013-02-01 19:03:00,
2013-02-01 14:12:00,24.0,11.0,29.78,WNW,294,6.0,18.0,56,0.00,,,0.01,,2013-02-01 19:12:00,
2013-02-01 14:21:00,23.0,10.0,29.78,West,279,7.0,21.0,57,0.00,,,0.01,,2013-02-01 19:21:00,
2013-02-01 14:32:00,24.0,13.0,29.79,North,355,5.0,13.0,63,0.00,,,0.01,,2013-02-01 19:32:00,
2013-02-01 14:42:00,24.0,13.0,29.79,North,355,5.0,13.0,63,0.00,,,0.01,,2013-02-01 19:42:00,
2013-02-01 14:52:00,24.0,14.0,29.80,North,5,4.0,9.0,65,0.00,,,0.01,,2013-02-01 19:52:00,
2013-02-01 15:02:00,23.0,12.0,29.81,North,355,6.0,12.0,61,0.00,,,0.01,,2013-02-01 20:02:00,
2013-02-01 15:11:00,23.0,13.0,29.82,North,5,2.0,11.0,64,0.00,,,0.01,,2013-02-01 20:11:00,
2013-02-01 15:21:00,23.0,13.0,29.82,North,5,2.0,11.0,64,0.00,,,0.01,,2013-02-01 20:21:00,
2013-02-01 15:32:00,22.0,12.0,29.83,NNW,337,3.0,12.0,64,0.00,,,0.01,,2013-02-01 20:32:00,
2013-02-01 15:42:00,22.0,11.0,29.85,West,280,2.0,11.0,61,0.00,,,0.01,,2013-02-01 20:42:00,
2013-02-01 15:52:00,22.0,11.0,29.85,West,280,2.0,11.0,61,0.00,,,0.01,,2013-02-01 20:52:00,
2013-02-01 16:02:00,22.0,10.0,29.86,NE,35,4.0,11.0,60,0.00,,,0.01,,2013-02-01 21:02:00,
2013-02-01 16:12:00,22.0,10.0,29.86,NE,35,4.0,11.0,60,0.00,,,0.01,,2013-02-01 21:12:00,
2013-02-01 16:22:00,22.0,10.0,29.87,WNW,298,4.0,13.0,59,0.00,,,0.01,,2013-02-01 21:22:00,
2013-02-01 16:32:00,21.0,9.0,29.88,WNW,292,8.0,17.0,58,0.00,,,0.01,,2013-02-01 21:32:00,
2013-02-01 16:42:00,21.0,9.0,29.88,WNW,292,8.0,17.0,58,0.00,,,0.01,,2013-02-01 21:42:00,
2013-02-01 16:52:00,21.0,9.0,29.88,NNW,334,3.0,15.0,60,0.00,,,0.01,,2013-02-01 21:52:00,
2013-02-01 17:02:00,21.0,10.0,29.89,WNW,290,2.0,7.0,62,0.00,,,0.01,,2013-02-01 22:02:00,
2013-02-01 17:11:00,21.0,10.0,29.90,WNW,284,4.0,12.0,62,0.00,,,0.01,,2013-02-01 22:11:00,
2013-02-01 17:21:00,21.0,10.0,29.90,WNW,284,4.0,12.0,62,0.00,,,0.01,,2013-02-01 22:21:00,
2013-02-01 17:32:00,20.0,10.0,29.91,NNE,17,2.0,9.0,65,0.00,,,0.01,,2013-02-01 22:32:00,
2013-02-01 17:42:00,20.0,10.0,29.91,NNE,17,2.0,9.0,65,0.00,,,0.01,,2013-02-01 22:42:00,
2013-02-01 17:52:00,20.0,11.0,29.92,NNW,329,2.0,7.0,69,0.00,,,0.01,,2013-02-01 22:52:00,
2013-02-01 18:01:00,20.0,12.0,29.93,West,281,0.0,5.0,71,0.00,,,0.01,,2013-02-01 23:01:00,
2013-02-01 18:11:00,20.0,12.0,29.93,West,281,0.0,5.0,71,0.00,,,0.01,,2013-02-01 23:11:00,
2013-02-01 18:21:00,19.0,11.0,29.94,North,360,1.0,4.0,72,0.00,,,0.01,,2013-02-01 23:21:00,
2013-02-01 18:32:00,19.0,11.0,29.95,NNE,19,2.0,7.0,72,0.00,,,0.01,,2013-02-01 23:32:00,
2013-02-01 18:42:00,19.0,11.0,29.95,NNE,19,2.0,7.0,72,0.00,,,0.01,,2013-02-01 23:42:00,
2013-02-01 18:52:00,19.0,12.0,29.96,NNE,19,0.0,1.0,73,0.00,,,0.01,,2013-02-01 23:52:00,
2013-02-01 19:02:00,19.0,11.0,29.97,North,355,1.0,7.0,71,0.00,,,0.01,,2013-02-02 00:02:00,
2013-02-01 19:11:00,19.0,11.0,29.97,North,355,1.0,7.0,71,0.00,,,0.01,,2013-02-02 00:11:00,
2013-02-01 19:21:00,19.0,11.0,29.97,NNW,346,0.0,6.0,70,0.00,,,0.01,,2013-02-02 00:21:00,
2013-02-01 19:32:00,19.0,11.0,29.98,NNE,13,1.0,6.0,71,0.00,,,0.01,,2013-02-02 00:32:00,
2013-02-01 19:42:00,19.0,11.0,29.98,NNE,13,1.0,6.0,71,0.00,,,0.01,,2013-02-02 00:42:00,
2013-02-01 19:52:00,19.0,12.0,29.98,NNE,13,0.0,1.0,73,0.00,,,0.01,,2013-02-02 00:52:00,
2013-02-01 20:02:00,19.0,12.0,29.98,SSE,155,2.0,5.0,73,0.00,,,0.01,,2013-02-02 01:02:00,
2013-02-01 20:11:00,19.0,12.0,29.98,SSE,155,2.0,5.0,73,0.00,,,0.01,,2013-02-02 01:11:00,
2013-02-01 20:21:00,20.0,12.0,29.98,SSW,211,1.0,5.0,72,0.00,,,0.01,,2013-02-02 01:21:00,
2013-02-01 20:32:00,20.0,12.0,29.99,WNW,287,1.0,9.0,71,0.00,,,0.01,,2013-02-02 01:32:00,
2013-02-01 20:42:00,20.0,12.0,29.99,WNW,287,1.0,9.0,71,0.00,,,0.01,,2013-02-02 01:42:00,
2013-02-01 20:52:00,20.0,11.0,29.99,WNW,289,2.0,13.0,68,0.00,,,0.01,,2013-02-02 01:52:00,
2013-02-01 21:01:00,20.0,11.0,30.00,West,271,1.0,5.0,67,0.00,,,0.01,,2013-02-02 02:01:00,
2013-02-01 21:11:00,20.0,11.0,30.00,West,271,1.0,5.0,67,0.00,,,0.01,,2013-02-02 02:11:00,
2013-02-01 21:22:00,20.0,10.0,30.00,NW,322,1.0,5.0,64,0.00,,,0.01,,2013-02-02 02:22:00,
2013-02-01 21:32:00,20.0,11.0,30.00,NW,322,0.0,1.0,67,0.00,,,0.01,,2013-02-02 02:32:00,
2013-02-01 21:42:00,20.0,11.0,30.00,NW,322,0.0,1.0,67,0.00,,,0.01,,2013-02-02 02:42:00,
2013-02-01 21:52:00,20.0,11.0,30.01,NNE,22,1.0,4.0,66,0.00,,,0.01,,2013-02-02 02:52:00,
2013-02-01 22:02:00,20.0,11.0,30.02,West,272,0.0,6.0,66,0.00,,,0.01,,2013-02-02 03:02:00,
2013-02-01 22:11:00,19.0,10.0,30.02,NW,311,3.0,7.0,66,0.00,,,0.00,,2013-02-02 03:11:00,
2013-02-01 22:22:00,19.0,10.0,30.02,NW,311,3.0,7.0,66,0.00,,,0.00,,2013-02-02 03:22:00,
2013-02-01 22:32:00,20.0,11.0,30.02,West,272,1.0,6.0,67,0.00,,,0.00,,2013-02-02 03:32:00,
2013-02-01 22:42:00,20.0,11.0,30.03,West,269,3.0,11.0,67,0.00,,,0.00,,2013-02-02 03:42:00,
2013-02-01 22:52:00,20.0,11.0,30.03,West,269,3.0,11.0,67,0.00,,,0.00,,2013-02-02 03:52:00,
2013-02-01 23:02:00,20.0,11.0,30.04,WNW,283,2.0,11.0,69,0.00,,,0.00,,2013-02-02 04:02:00,
2013-02-01 23:11:00,20.0,11.0,30.04,WNW,283,2.0,11.0,69,0.00,,,0.00,,2013-02-02 04:11:00,
2013-02-01 23:22:00,18.0,13.0,30.05,NNW,331,2.0,5.0,80,0.00,,,0.00,,2013-02-02 04:22:00,
2013-02-01 23:32:00,18.0,12.0,30.05,WNW,287,1.0,5.0,78,0.00,,,0.00,,2013-02-02 04:32:00,
2013-02-01 23:42:00,18.0,12.0,30.05,WNW,287,1.0,5.0,78,0.00,,,0.00,,2013-02-02 04:42:00,
2013-02-01 23:52:00,19.0,12.0,30.06,NNW,333,2.0,6.0,75,0.00,,,0.00,,2013-02-02 04:52:00,